This is the latest recevied weather packets stored in our database for station/object N3SBK. If no packets are shown the sender has not sent any weather packets the latest 10 day(s).
| Time | Temp. | Humidity | Pressure | Rain* | Wind** | Luminosity | Snow |
|---|---|---|---|---|---|---|---|
| 1788066232 | 18.89° C | 79% | 1013.9 hPa | 0 mm | - | 0 W/m² | - |
| 1788065930 | 18.89° C | 77% | 1013.8 hPa | 0 mm | - | 0 W/m² | - |
| 1788065625 | 18.89° C | 77% | 1013.8 hPa | 0 mm | - | 0 W/m² | - |
| 1788065324 | 19.44° C | 76% | 1013.7 hPa | 0 mm | - | 0 W/m² | - |
| 1788065021 | 18.89° C | 76% | 1014 hPa | 0 mm | - | 0 W/m² | - |
| 1788064720 | 19.44° C | 76% | 1013.9 hPa | 0 mm | - | 0 W/m² | - |
| 1788064416 | 19.44° C | 75% | 1013.8 hPa | 0 mm | - | 0 W/m² | - |
| 1788064113 | 18.89° C | 76% | 1013.9 hPa | 0 mm | - | 0 W/m² | - |
| 1788063808 | 18.89° C | 75% | 1013.8 hPa | 0 mm | - | 0 W/m² | - |
| 1788063507 | 18.89° C | 75% | 1013.8 hPa | 0 mm | - | 0 W/m² | - |
| 1788063206 | 18.89° C | 75% | 1013.9 hPa | 0 mm | - | 0 W/m² | - |
| 1788062902 | 18.89° C | 74% | 1014 hPa | 0 mm | - | 0 W/m² | - |
| 1788062598 | 18.89° C | 74% | 1013.9 hPa | 0 mm | - | 0 W/m² | - |
| 1788062296 | 18.89° C | 73% | 1014 hPa | 0 mm | - | 0 W/m² | - |
| 1788061990 | 18.89° C | 73% | 1014 hPa | 0 mm | - | 0 W/m² | - |
| 1788061686 | 18.89° C | 72% | 1013.9 hPa | 0 mm | - | 0 W/m² | - |
| 1788061386 | 18.89° C | 72% | 1013.9 hPa | 0 mm | - | 0 W/m² | - |
| 1788061082 | 18.89° C | 71% | 1013.7 hPa | 0 mm | - | 0 W/m² | - |
| 1788060781 | 18.89° C | 71% | 1014 hPa | 0 mm | - | 0 W/m² | - |
| 1788060477 | 19.44° C | 68% | 1014 hPa | 0 mm | - | 0 W/m² | - |
| 1788060170 | 19.44° C | 68% | 1014 hPa | 0 mm | - | 0 W/m² | - |
| 1788059866 | 20° C | 69% | 1014.1 hPa | 0 mm | - | 0 W/m² | - |
| 1788059561 | 20.56° C | 65% | 1013.9 hPa | 0 mm | - | 0 W/m² | - |
| 1788059257 | 20.56° C | 65% | 1014 hPa | 0 mm | - | 0 W/m² | - |
| 1788058953 | 20.56° C | 65% | 1013.8 hPa | 0 mm | - | 0 W/m² | - |
* Rain latest hour (hover to see other rain measurements)
** Current wind speed in m/s (hover to see current wind gust speed)